AAL705 EDDF-KCLT

Flight info

Callsign AAL705
Flight time N/A
Altitude 34000
Route OBOKA3M OBOKA Z28 DIBIR DCT BUDIP DCT RAVLO Y70 OTBED L60 BOLBI/N0483F360 L60 PENIL M144 BAGSO DCT DEVOL DCT BEXET DCT DOGAL/M084F360 DCT 54N020W 53N030W 5130N04000W 50N050W DCT ELSIR/N0483F380 N402C ALLEX DCT KAYCC DCT KYLOH DCT NELIE Q75 FARLE/N0493F400 Q75 GVE DCT AIROW CHSLY6
Aircraft B77W/H-SDE1E2E3FGHIJ2J3J4J5M1RWXY/LB1D1

Departure

Time N/A
Airport Frankfurt Main Airport (EDDF)

Arrival

Time 2026-05-08 05:05
Airport Charlotte Douglas International Airport (KCLT)
Time Latitude Longitude Altitude Speed Heading
2026-05-08 04:37 36.60735 -79.78094 34023 ft 401 kts 228°
2026-05-08 04:38 36.58440 -79.79996 33788 ft 393 kts 228°
2026-05-08 04:38 36.56175 -79.81887 32990 ft 392 kts 228°
2026-05-08 04:38 36.53908 -79.83783 32025 ft 392 kts 227°
2026-05-08 04:38 36.51639 -79.85677 31129 ft 394 kts 227°
2026-05-08 04:39 36.49368 -79.87563 30392 ft 392 kts 227°
2026-05-08 04:39 36.47104 -79.89441 29529 ft 391 kts 226°
2026-05-08 04:39 36.44849 -79.91311 28723 ft 389 kts 226°
2026-05-08 04:39 36.42605 -79.93170 27983 ft 386 kts 226°
2026-05-08 04:40 36.40372 -79.95026 26713 ft 393 kts 225°
2026-05-08 04:40 36.38046 -79.96973 25073 ft 415 kts 224°
2026-05-08 04:40 36.35589 -79.99019 23684 ft 432 kts 222°
2026-05-08 04:40 36.33068 -80.01091 22627 ft 434 kts 221°
2026-05-08 04:41 36.30569 -80.03135 21730 ft 427 kts 221°
2026-05-08 04:41 36.28115 -80.05149 20971 ft 419 kts 221°
2026-05-08 04:41 36.25718 -80.07122 20340 ft 409 kts 221°
2026-05-08 04:41 36.23410 -80.09015 20324 ft 387 kts 221°
2026-05-08 04:42 36.21224 -80.10800 20310 ft 366 kts 222°
2026-05-08 04:42 36.19152 -80.12501 19741 ft 362 kts 222°
2026-05-08 04:42 36.17047 -80.14252 19370 ft 376 kts 222°
2026-05-08 04:42 36.14850 -80.16077 19212 ft 384 kts 221°
2026-05-08 04:43 36.12611 -80.17924 19033 ft 388 kts 221°
2026-05-08 04:43 36.10368 -80.19762 18996 ft 385 kts 221°
2026-05-08 04:43 36.08142 -80.21581 18969 ft 381 kts 221°
2026-05-08 04:43 36.05932 -80.23390 18982 ft 382 kts 221°
2026-05-08 04:44 36.03716 -80.25207 18981 ft 383 kts 221°
2026-05-08 04:44 36.01494 -80.27026 18980 ft 383 kts 221°
2026-05-08 04:44 35.99277 -80.28838 18984 ft 383 kts 221°
2026-05-08 04:44 35.97054 -80.30654 18888 ft 380 kts 221°
2026-05-08 04:45 35.94861 -80.32443 18485 ft 377 kts 221°
2026-05-08 04:45 35.92684 -80.34220 17817 ft 374 kts 221°
2026-05-08 04:45 35.90515 -80.35993 16970 ft 374 kts 221°
2026-05-08 04:45 35.88344 -80.37766 16130 ft 375 kts 221°
2026-05-08 04:46 35.86161 -80.39546 15362 ft 376 kts 220°
2026-05-08 04:46 35.83984 -80.41322 14666 ft 375 kts 220°
2026-05-08 04:46 35.81812 -80.43095 13980 ft 374 kts 219°
2026-05-08 04:46 35.79652 -80.44858 13479 ft 368 kts 219°
2026-05-08 04:47 35.77562 -80.46549 13372 ft 351 kts 219°
2026-05-08 04:47 35.75562 -80.48152 13267 ft 336 kts 219°
2026-05-08 04:47 35.73641 -80.49676 13175 ft 321 kts 219°
2026-05-08 04:47 35.71793 -80.51128 13084 ft 309 kts 219°
2026-05-08 04:48 35.70014 -80.52511 12966 ft 297 kts 219°
2026-05-08 04:48 35.68291 -80.53838 12809 ft 288 kts 219°
2026-05-08 04:48 35.66608 -80.55127 12566 ft 283 kts 219°
2026-05-08 04:48 35.64967 -80.56380 12226 ft 281 kts 219°
2026-05-08 04:49 35.63311 -80.57644 11874 ft 280 kts 218°
2026-05-08 04:49 35.61662 -80.58902 11537 ft 278 kts 218°
2026-05-08 04:49 35.60022 -80.60151 11216 ft 276 kts 218°
2026-05-08 04:49 35.58389 -80.61369 10915 ft 274 kts 217°
2026-05-08 04:50 35.56750 -80.62560 10609 ft 273 kts 217°
2026-05-08 04:50 35.55123 -80.63743 10292 ft 271 kts 216°
2026-05-08 04:50 35.53509 -80.64925 9995 ft 269 kts 217°
2026-05-08 04:50 35.51915 -80.66111 9659 ft 268 kts 217°
2026-05-08 04:51 35.50326 -80.67300 9270 ft 268 kts 217°
2026-05-08 04:51 35.48732 -80.68490 9031 ft 269 kts 216°
2026-05-08 04:51 35.47133 -80.69685 9039 ft 270 kts 216°
2026-05-08 04:51 35.45527 -80.70881 9027 ft 270 kts 216°
2026-05-08 04:52 35.43924 -80.72074 9020 ft 269 kts 216°
2026-05-08 04:52 35.42326 -80.73263 9026 ft 269 kts 216°
2026-05-08 04:52 35.40724 -80.74454 9029 ft 269 kts 216°
2026-05-08 04:52 35.39123 -80.75643 9016 ft 269 kts 217°
2026-05-08 04:53 35.37524 -80.76832 9025 ft 269 kts 217°
2026-05-08 04:53 35.35942 -80.78005 9013 ft 261 kts 217°
2026-05-08 04:53 35.34429 -80.79125 9005 ft 247 kts 217°
2026-05-08 04:53 35.33004 -80.80179 9011 ft 232 kts 217°
2026-05-08 04:54 35.31656 -80.81177 9008 ft 223 kts 218°
2026-05-08 04:54 35.30310 -80.82179 9021 ft 228 kts 218°
2026-05-08 04:54 35.28965 -80.83170 8982 ft 223 kts 215°
2026-05-08 04:54 35.27482 -80.83677 9007 ft 234 kts 188°
2026-05-08 04:55 35.25822 -80.83576 9008 ft 242 kts 184°
2026-05-08 04:55 35.24133 -80.83428 9013 ft 245 kts 184°
2026-05-08 04:55 35.22428 -80.83276 8997 ft 244 kts 183°
2026-05-08 04:55 35.20753 -80.83126 8988 ft 240 kts 184°
2026-05-08 04:56 35.19092 -80.82980 8994 ft 238 kts 184°
2026-05-08 04:56 35.17440 -80.82839 8951 ft 239 kts 184°
2026-05-08 04:56 35.15780 -80.82699 8714 ft 239 kts 184°
2026-05-08 04:56 35.14134 -80.82559 8476 ft 234 kts 184°
2026-05-08 04:57 35.12516 -80.82423 8196 ft 233 kts 184°
2026-05-08 04:57 35.10886 -80.82289 7846 ft 235 kts 184°
2026-05-08 04:57 35.09256 -80.82153 7551 ft 235 kts 183°
2026-05-08 04:57 35.07635 -80.82040 7277 ft 232 kts 185°
2026-05-08 04:58 35.06026 -80.82050 6984 ft 231 kts 187°
2026-05-08 04:58 35.04426 -80.82094 6734 ft 229 kts 187°
2026-05-08 04:58 35.02827 -80.81904 6352 ft 236 kts 174°
2026-05-08 04:58 35.01223 -80.81581 5965 ft 230 kts 187°
2026-05-08 04:59 34.99739 -80.82104 5471 ft 226 kts 220°
2026-05-08 04:59 34.98752 -80.83539 5026 ft 216 kts 253°
2026-05-08 04:59 34.98603 -80.85272 4668 ft 206 kts 287°
2026-05-08 04:59 34.99280 -80.86727 4448 ft 197 kts 316°
2026-05-08 05:00 35.00310 -80.87829 4424 ft 197 kts 321°
2026-05-08 05:00 35.01373 -80.88876 4424 ft 196 kts 322°
2026-05-08 05:00 35.02424 -80.89904 4370 ft 188 kts 322°
2026-05-08 05:00 35.03414 -80.90872 4171 ft 176 kts 322°
2026-05-08 05:01 35.04413 -80.91667 3739 ft 168 kts 346°
2026-05-08 05:01 35.05555 -80.91882 3592 ft 172 kts 350°
2026-05-08 05:01 35.06744 -80.92158 3367 ft 173 kts 351°
2026-05-08 05:01 35.07931 -80.92349 3118 ft 171 kts 354°
2026-05-08 05:02 35.09100 -80.92466 2908 ft 164 kts 356°
2026-05-08 05:02 35.10220 -80.92564 2690 ft 161 kts 356°
2026-05-08 05:02 35.11287 -80.92655 2480 ft 145 kts 356°
2026-05-08 05:02 35.12248 -80.92738 2300 ft 131 kts 356°
2026-05-08 05:03 35.13132 -80.92814 2144 ft 126 kts 356°
2026-05-08 05:03 35.14017 -80.92891 1973 ft 128 kts 356°
2026-05-08 05:03 35.14908 -80.92967 1788 ft 128 kts 357°
2026-05-08 05:03 35.15802 -80.93042 1600 ft 129 kts 357°
2026-05-08 05:04 35.16709 -80.93119 1434 ft 135 kts 356°
2026-05-08 05:04 35.17651 -80.93200 1251 ft 136 kts 356°
2026-05-08 05:04 35.18594 -80.93281 1054 ft 137 kts 356°
2026-05-08 05:04 35.19550 -80.93366 851 ft 139 kts 356°
2026-05-08 05:05 35.20510 -80.93444 732 ft 136 kts 354°
2026-05-08 05:05 35.21356 -80.93523 726 ft 102 kts 356°
2026-05-08 05:05 35.21877 -80.93566 734 ft 55 kts 356°
2026-05-08 05:05 35.22019 -80.93630 735 ft 13 kts 256°
2026-05-08 05:06 35.21967 -80.93718 734 ft 12 kts 229°
2026-05-08 05:06 35.21916 -80.93788 731 ft 8 kts 229°
2026-05-08 05:06 35.21874 -80.93848 732 ft 10 kts 231°
2026-05-08 05:06 35.21857 -80.93918 732 ft 7 kts 296°
2026-05-08 05:07 35.21901 -80.93937 732 ft 7 kts 20°
2026-05-08 05:07 35.21939 -80.93890 733 ft 8 kts 47°
2026-05-08 05:07 35.21979 -80.93835 733 ft 9 kts 49°
2026-05-08 05:07 35.22035 -80.93801 732 ft 10 kts
2026-05-08 05:08 35.22103 -80.93804 734 ft 10 kts 356°
2026-05-08 05:08 35.22172 -80.93812 734 ft 10 kts 351°
2026-05-08 05:08 35.22189 -80.93837 736 ft 4 kts 276°
2026-05-08 05:08 35.22180 -80.93919 734 ft 12 kts 229°
2026-05-08 05:09 35.22143 -80.93937 734 ft 3 kts 187°
2026-05-08 05:09 35.22135 -80.93939 736 ft 1 kts 193°
2026-05-08 05:09 35.22131 -80.93941 732 ft 0 kts 193°
2026-05-08 05:09 35.22128 -80.93941 732 ft 0 kts 193°
2026-05-08 05:10 35.22127 -80.93942 732 ft 0 kts 193°